Hourly Data Report for April 14, 2021

CARBERRY CS
MANITOBA
Current Station Operator: ECCC - MSC

49°54'20.900" N
99°21'26.800" W
383.50 m
5010547
71170
WZE

Download Data

Hourly Data (April 2021)
Hourly Data Report for April 14, 2021
TIME
LST
Temp Definition
°C
Dew Point Definition
°C
Rel Hum Definition
%
Precip. Amount Definition
mm

Wind Dir Definition
10's deg

Wind Spd Definition
km/h
Visibility Definition
km
Stn Press Definition
kPa
Hmdx Definition


Wind Chill Definition


Weather Definition


00:00 -5.4 -6.8 90 0.0 1 27   98.06   -13 LegendNANA
01:00 -5.3 -7.0 88 0.0 1 22   98.09   -12 LegendNANA
02:00 -5.4 -7.1 88 0.0 1 23   98.14   -13 LegendNANA
03:00 -5.5 -7.5 85 0.0 36 21   98.22   -12 LegendNANA
04:00 -5.4 -8.2 81 0.0 1 20   98.25   -12 LegendNANA
05:00 -5.5 -8.7 78 0.0 36 20   98.27   -12 LegendNANA
06:00 -5.9 -8.9 79 0.0 36 22   98.30   -13 LegendNANA
07:00 -5.8 -8.8 79 0.0 36 21   98.34   -13 LegendNANA
08:00 -5.4 -8.6 78 0.0 36 20   98.35   -12 LegendNANA
09:00 -5.0 -8.6 76 0.0 1 19   98.36   -11 LegendNANA
10:00 -4.2 -8.2 74 0.0 36 18   98.38   -10 LegendNANA
11:00 -3.5 -7.9 71 0.0 35 15   98.38   -9 LegendNANA
12:00 -2.6 -7.4 70 0.0 34 17   98.36   -8 LegendNANA
13:00 -2.0 -6.9 69 0.0 36 16   98.34   -7 LegendNANA
14:00 -1.9 -6.7 69 0.0 1 16   98.32   -7 LegendNANA
15:00 -1.9 -6.4 71 0.0 36 16   98.32   -7 LegendNANA
16:00 -1.9 -6.3 72 0.0 2 15   98.29   -7 LegendNANA
17:00 -1.7 -5.8 74 0.0 2 14   98.27   -6 LegendNANA
18:00 -2.0 -5.9 74 0.0 3 15   98.24   -7 LegendNANA
19:00 -2.2 -5.8 76 0.0 2 12   98.23   -6 LegendNANA
20:00 -2.4 -5.7 78 0.0 2 14   98.25   -7 LegendNANA
21:00 -2.3 -5.6 78 0.0 2 15   98.27   -7 LegendNANA
22:00 -2.4 -5.5 79 0.0 1 13   98.27   -7 LegendNANA
23:00 -2.5 -5.4 80 0.0 36 10   98.26   -6 LegendNANA

Notes on Data Quality.

Legend

  • E = Estimated
  • M = Missing
  • NA = Not Available*
  • [empty] = Indicates an unobserved value
Date modified: